When you browse on this site, cookies collect data to enhance your experience and personalize the content and advertising you see.
Visit our Privacy Policy to learn more. By continuing to use the site, you agree to this use of cookies and data.
  • In France
  • List of Countries
  • For 7 days
  • Water Temperature
  • Satellite Maps
  • Weather Map
  • Weather Widgets
  • user-avatar
    Login

    Hourly Weather Igls

    Today, 17 June, Monday

    Time Temperature Precipitation Wind Pressure Humidity
    00:00 +13°C° 0 mm 0 mps 688 mmHg 98%
    01:00 +13°C° 0 mm 0 mps 688 mmHg 97%
    02:00 +12°C° 0 mm 0 mps 687 mmHg 97%
    03:00 +12°C° 0 mm 0 mps 687 mmHg 97%
    04:00 +12°C° 0 mm 0 mps 687 mmHg 97%
    05:00 +13°C° 0 mm 0 mps 687 mmHg 93%
    06:00 +14°C° 0 mm 0 mps 687 mmHg 90%
    07:00 +15°C° 0 mm 0 mps 688 mmHg 86%
    08:00 +19°C° 0 mm 1 mps 688 mmHg 75%
    09:00 +22°C° 0 mm 1 mps 688 mmHg 64%
    10:00 +24°C° 0 mm 1 mps 688 mmHg 54%
    11:00 +25°C° 0.1 mm 2 mps 688 mmHg 51%
    12:00 +26°C° 0.1 mm 2 mps 688 mmHg 49%
    13:00 +26°C° 0.1 mm 2 mps 688 mmHg 46%
    14:00 +26°C° 0.5 mm 2 mps 687 mmHg 51%
    15:00 +25°C° 0.5 mm 2 mps 687 mmHg 55%
    16:00 +25°C° 0.5 mm 2 mps 686 mmHg 59%
    17:00 +24°C° 1.1 mm 1 mps 686 mmHg 68%
    18:00 +22°C° 1.1 mm 1 mps 686 mmHg 77%
    19:00 +21°C° 1.1 mm 1 mps 686 mmHg 86%
    20:00 +19°C° 0.4 mm 1 mps 686 mmHg 88%
    21:00 +18°C° 0.4 mm 1 mps 686 mmHg 89%
    22:00 +15°C° 0.4 mm 1 mps 685 mmHg 90%
    23:00 +15°C° 0 mm 1 mps 685 mmHg 89%

    Tomorrow, 18 June, Tuesday

    Time Temperature Precipitation Wind Pressure Humidity
    00:00 +15°C° 0 mm 1 mps 685 mmHg 88%
    01:00 +15°C° 0 mm 1 mps 685 mmHg 88%
    02:00 +14°C° 0 mm 1 mps 685 mmHg 88%
    03:00 +14°C° 0 mm 1 mps 685 mmHg 88%
    04:00 +14°C° 0 mm 1 mps 685 mmHg 87%
    05:00 +16°C° 0 mm 1 mps 685 mmHg 84%
    06:00 +18°C° 0 mm 1 mps 686 mmHg 80%
    07:00 +18°C° 0 mm 0 mps 686 mmHg 77%
    08:00 +20°C° 0.1 mm 0 mps 686 mmHg 68%
    09:00 +24°C° 0.1 mm 1 mps 686 mmHg 59%
    10:00 +27°C° 0.1 mm 1 mps 686 mmHg 50%
    11:00 +27°C° 0.6 mm 1 mps 686 mmHg 50%
    12:00 +27°C° 0.6 mm 1 mps 686 mmHg 49%
    13:00 +28°C° 0.6 mm 1 mps 686 mmHg 49%
    14:00 +26°C° 1.6 mm 1 mps 685 mmHg 59%
    15:00 +25°C° 1.6 mm 1 mps 685 mmHg 69%
    16:00 +23°C° 1.6 mm 1 mps 684 mmHg 79%
    17:00 +22°C° 1.3 mm 1 mps 684 mmHg 83%
    18:00 +21°C° 1.3 mm 1 mps 684 mmHg 88%
    19:00 +20°C° 1.3 mm 1 mps 684 mmHg 93%
    20:00 +19°C° 0.3 mm 1 mps 684 mmHg 93%
    21:00 +18°C° 0.3 mm 1 mps 684 mmHg 93%
    22:00 +16°C° 0.3 mm 1 mps 684 mmHg 93%
    23:00 +16°C° 0 mm 1 mps 684 mmHg 92%

    Day after tomorrow, 19 June, Wednesday

    Time Temperature Precipitation Wind Pressure Humidity
    00:00 +16°C° 0 mm 1 mps 684 mmHg 91%
    01:00 +15°C° 0 mm 0 mps 684 mmHg 90%
    02:00 +15°C° 0 mm 1 mps 683 mmHg 90%
    03:00 +15°C° 0 mm 1 mps 683 mmHg 90%
    04:00 +14°C° 0 mm 1 mps 683 mmHg 89%
    05:00 +15°C° 0 mm 0 mps 683 mmHg 85%
    06:00 +17°C° 0 mm 0 mps 684 mmHg 82%
    07:00 +19°C° 0 mm 0 mps 684 mmHg 78%
    08:00 +20°C° 0.4 mm 0 mps 684 mmHg 69%
    09:00 +24°C° 0.4 mm 1 mps 685 mmHg 59%
    10:00 +26°C° 0.4 mm 1 mps 685 mmHg 50%
    11:00 +27°C° 0.7 mm 1 mps 685 mmHg 48%
    12:00 +27°C° 0.7 mm 1 mps 685 mmHg 47%
    13:00 +27°C° 0.7 mm 1 mps 684 mmHg 45%
    14:00 +26°C° 0.5 mm 1 mps 684 mmHg 50%
    15:00 +25°C° 0.5 mm 1 mps 684 mmHg 56%
    16:00 +24°C° 0.5 mm 1 mps 683 mmHg 61%
    17:00 +23°C° 0.5 mm 1 mps 683 mmHg 68%
    18:00 +22°C° 0.5 mm 1 mps 683 mmHg 75%
    19:00 +20°C° 0.5 mm 1 mps 683 mmHg 82%
    20:00 +19°C° 0.1 mm 1 mps 683 mmHg 82%
    21:00 +16°C° 0.1 mm 1 mps 683 mmHg 83%
    22:00 +15°C° 0.1 mm 1 mps 683 mmHg 84%
    23:00 +15°C° 0 mm 1 mps 683 mmHg 84%

    20 June, Thursday

    Time Temperature Precipitation Wind Pressure Humidity
    00:00 +14°C° 0 mm 1 mps 683 mmHg 83%
    01:00 +14°C° 0 mm 1 mps 683 mmHg 83%
    02:00 +14°C° 0 mm 1 mps 683 mmHg 83%
    03:00 +14°C° 0 mm 1 mps 683 mmHg 84%
    04:00 +13°C° 0 mm 1 mps 683 mmHg 85%
    05:00 +14°C° 0 mm 0 mps 683 mmHg 81%
    06:00 +16°C° 0 mm 0 mps 684 mmHg 76%
    07:00 +19°C° 0 mm 0 mps 684 mmHg 72%
    08:00 +22°C° 0.2 mm 1 mps 685 mmHg 68%
    09:00 +23°C° 0.2 mm 1 mps 685 mmHg 64%
    10:00 +25°C° 0.2 mm 1 mps 685 mmHg 60%
    11:00 +24°C° 1.2 mm 1 mps 685 mmHg 64%
    12:00 +24°C° 1.2 mm 1 mps 685 mmHg 69%
    13:00 +24°C° 1.2 mm 2 mps 684 mmHg 74%
    14:00 +23°C° 1.4 mm 2 mps 684 mmHg 77%
    15:00 +23°C° 1.4 mm 2 mps 684 mmHg 80%
    16:00 +21°C° 1.4 mm 2 mps 684 mmHg 83%
    17:00 +21°C° 0.9 mm 1 mps 684 mmHg 86%
    18:00 +21°C° 0.9 mm 1 mps 684 mmHg 90%
    19:00 +20°C° 0.9 mm 1 mps 684 mmHg 93%
    20:00 +19°C° 0.5 mm 1 mps 684 mmHg 93%
    21:00 +18°C° 0.5 mm 1 mps 684 mmHg 93%
    22:00 +18°C° 0.5 mm 1 mps 685 mmHg 93%
    23:00 +16°C° 0.1 mm 1 mps 685 mmHg 92%

    21 June, Friday

    Time Temperature Precipitation Wind Pressure Humidity
    00:00 +16°C° 0.1 mm 1 mps 684 mmHg 91%
    01:00 +16°C° 0.1 mm 1 mps 684 mmHg 90%
    02:00 +14°C° 0 mm 0 mps 684 mmHg 90%
    03:00 +14°C° 0 mm 0 mps 684 mmHg 90%
    04:00 +13°C° 0 mm 0 mps 684 mmHg 91%
    05:00 +15°C° 0 mm 0 mps 684 mmHg 87%
    06:00 +17°C° 0 mm 0 mps 684 mmHg 83%
    07:00 +18°C° 0 mm 0 mps 685 mmHg 80%
    08:00 +20°C° 0.3 mm 0 mps 685 mmHg 74%
    09:00 +23°C° 0.3 mm 1 mps 685 mmHg 68%
    10:00 +25°C° 0.3 mm 1 mps 685 mmHg 61%
    11:00 +25°C° 1.3 mm 1 mps 685 mmHg 66%
    12:00 +24°C° 1.3 mm 2 mps 685 mmHg 70%
    13:00 +24°C° 1.3 mm 2 mps 684 mmHg 74%
    14:00 +23°C° 2.3 mm 2 mps 684 mmHg 78%
    15:00 +23°C° 2.3 mm 2 mps 684 mmHg 81%
    16:00 +21°C° 2.3 mm 2 mps 684 mmHg 85%
    17:00 +21°C° 1.6 mm 1 mps 684 mmHg 89%
    18:00 +20°C° 1.6 mm 1 mps 684 mmHg 92%
    19:00 +19°C° 1.6 mm 1 mps 684 mmHg 96%
    20:00 +18°C° 3.5 mm 1 mps 684 mmHg 97%
    21:00 +18°C° 3.5 mm 1 mps 684 mmHg 98%
    22:00 +16°C° 3.5 mm 1 mps 685 mmHg 98%
    23:00 +16°C° 2 mm 1 mps 685 mmHg 98%

    22 June, Saturday

    Time Temperature Precipitation Wind Pressure Humidity
    00:00 +16°C° 2 mm 1 mps 685 mmHg 98%
    01:00 +15°C° 2 mm 1 mps 684 mmHg 97%
    02:00 +15°C° 0.7 mm 1 mps 684 mmHg 97%
    03:00 +14°C° 0.7 mm 0 mps 684 mmHg 96%
    04:00 +14°C° 0.7 mm 0 mps 684 mmHg 96%
    05:00 +14°C° 0.1 mm 0 mps 684 mmHg 94%
    06:00 +15°C° 0.1 mm 0 mps 684 mmHg 92%
    07:00 +16°C° 0.1 mm 0 mps 685 mmHg 90%
    08:00 +19°C° 0.2 mm 1 mps 685 mmHg 86%
    09:00 +20°C° 0.2 mm 1 mps 685 mmHg 81%
    10:00 +21°C° 0.2 mm 1 mps 685 mmHg 76%
    11:00 +21°C° 0.9 mm 1 mps 685 mmHg 78%
    12:00 +22°C° 0.9 mm 1 mps 685 mmHg 81%
    13:00 +21°C° 0.9 mm 2 mps 685 mmHg 83%
    14:00 +21°C° 0.8 mm 2 mps 685 mmHg 81%
    15:00 +21°C° 0.8 mm 2 mps 685 mmHg 80%
    16:00 +21°C° 0.8 mm 2 mps 685 mmHg 78%
    17:00 +20°C° 0.3 mm 2 mps 685 mmHg 82%
    18:00 +21°C° 0.3 mm 1 mps 685 mmHg 86%
    19:00 +20°C° 0.3 mm 1 mps 685 mmHg 90%
    20:00 +18°C° 0.1 mm 1 mps 686 mmHg 92%
    21:00 +16°C° 0.1 mm 1 mps 686 mmHg 95%
    22:00 +13°C° 0.1 mm 0 mps 686 mmHg 97%
    23:00 +13°C° 0 mm 0 mps 686 mmHg 95%
    Show more